Miyakojima, Japan

7:56 PM JST on March 26, 2017 (GMT +0900)
Miyako

Weather History for ROMY - January, 2013

Change the Weather History Date:

Monday, January 7, 2013

  Actual Average Record
Temperature  
Mean Temperature 70 °F -  
Max Temperature 74 °F 66 °F 77 °F (2008)
Min Temperature 67 °F 60 °F 53 °F (2006)
Cooling Degree Days 5    
Growing Degree Days 20 (Base 50)    
Moisture  
Dew Point 66 °F    
Average Humidity 86    
Maximum Humidity 98    
Minimum Humidity 73    
Precipitation  
Precipitation 0.12 in - - ()
Sea Level Pressure  
Sea Level Pressure 30.00 in    
Wind  
Wind Speed 11 mph ()    
Max Wind Speed 16 mph    
Max Gust Speed -    
Visibility 5.2 miles    
Events Rain    
Averages and records for this station are not official NWS values.
T = Trace of Precipitation, MM = Missing Value Source: Averaged Metar Reports

Daily Weather History Graph

Daily Weather History Graph

Search for Another Location

Airport or City:

Trip Planner

Search our weather history database for the weather conditions in past years. The results will help you decide how hot, cold, wet, or windy it might be!

Date:

Astronomy

Jan. 07, 2013 Rise Set
Actual Time 7:24 AM JST 6:05 PM JST
Civil Twilight 7:00 AM JST 6:30 PM JST
Nautical Twilight 6:31 AM JST 6:58 PM JST
Astronomical Twilight 6:03 AM JST 7:26 PM JST
Moon 2:17 AM JST (1/7) 1:41 PM JST (1/7)
Length of Visible Light 11h 30m
Length of Day
10h 40m
Waning Crescent, 29% of the Moon is Illuminated
Jan 7
Waning Crescent
Jan 12
New
Jan 19
First Quarter
Jan 27
Full
Feb 3
Last Quarter

Hourly Weather History & Observations

Time (JST) Temp. Dew Point Humidity Pressure Visibility Wind Dir Wind Speed Gust Speed Precip Events Conditions
12:00 AM 68 °F 63 °F 78% 30.05 in - ENE 15.0 mph - -  
3:00 AM 69 °F 63 °F 76% 30.03 in 12 mi East 12.7 mph - -   Mostly Cloudy
6:00 AM 69 °F 64 °F 81% 30.04 in 12 mi ENE 12.7 mph - - Rain Light Rain Showers
6:30 AM 69.8 °F 62.6 °F 78% 30.01 in 6.2 mi ENE 15.0 mph - N/A   Mostly Cloudy
7:00 AM 68.0 °F 62.6 °F 83% 30.04 in 6.2 mi East 12.7 mph - N/A Rain Light Rain
8:00 AM 69.8 °F 62.6 °F 78% 30.04 in 6.2 mi East 13.8 mph - N/A   Mostly Cloudy
9:00 AM 70 °F 66 °F 85% 30.08 in 12 mi East 10.4 mph - - Rain Light Rain Showers
9:00 AM 69.8 °F 64.4 °F 83% 30.04 in 6.2 mi East 13.8 mph - N/A Rain Light Rain
10:00 AM 69.8 °F 64.4 °F 83% 30.06 in 6.2 mi East 10.4 mph - N/A Rain Light Rain
10:09 AM 69.8 °F 64.4 °F 83% 30.06 in 1.6 mi ESE 6.9 mph - N/A Rain Rain
10:24 AM 69.8 °F 66.2 °F 88% 30.06 in 1.2 mi East 12.7 mph - N/A Rain Rain
10:33 AM 69.8 °F 66.2 °F 88% 30.06 in 2.5 mi ESE 11.5 mph - N/A Rain Rain
10:42 AM 69.8 °F 66.2 °F 88% 30.06 in 3.1 mi ESE 10.4 mph - N/A Rain Light Rain
11:00 AM 69.8 °F 66.2 °F 88% 30.04 in 6.2 mi ESE 11.5 mph - N/A Rain Light Rain
12:00 PM 72 °F 67 °F 80% 30.05 in 12 mi ESE 11.5 mph - -   Partly Cloudy
12:00 PM 71.6 °F 66.2 °F 83% 30.01 in 6.2 mi ESE 16.1 mph - N/A   Mostly Cloudy
2:00 PM 73.4 °F 64.4 °F 73% 29.98 in 6.2 mi ESE 15.0 mph - N/A   Mostly Cloudy
3:00 PM 69.8 °F 66.2 °F 88% 29.95 in 6.2 mi ESE 15.0 mph - N/A Rain Light Rain
3:16 PM 69.8 °F 66.2 °F 88% 29.95 in 1.9 mi ESE 12.7 mph - N/A Rain Rain
3:24 PM 69.8 °F 68.0 °F 94% 29.95 in 2.5 mi ESE 12.7 mph - N/A Rain Light Rain
3:30 PM 69.8 °F 66.2 °F 88% 29.95 in 3.7 mi ESE 11.5 mph - N/A Rain Light Rain
4:00 PM 69.8 °F 66.2 °F 88% 29.92 in 6.2 mi ESE 11.5 mph - N/A   Mostly Cloudy
5:00 PM 69.8 °F 68.0 °F 94% 29.95 in 2.2 mi ESE 12.7 mph - N/A Rain Light Rain
5:17 PM 69.8 °F 66.2 °F 88% 29.95 in 3.1 mi ESE 10.4 mph - N/A Rain Light Rain
6:00 PM 69 °F 68 °F 96% 29.97 in 4 mi ESE 11.5 mph - - Rain Light Rain
6:00 PM 68.0 °F 66.2 °F 94% 29.95 in 2.2 mi ESE 9.2 mph - N/A Rain Light Rain
6:30 PM 69.8 °F 68.0 °F 94% 29.95 in 3.1 mi ESE 8.1 mph - N/A Rain Light Rain
7:00 PM 69.8 °F 68.0 °F 94% 29.95 in 3.7 mi ESE 8.1 mph - N/A Rain Light Rain
8:00 PM 69.8 °F 68.0 °F 94% 29.95 in 3.1 mi SE 11.5 mph - N/A Rain Light Rain
9:00 PM 70 °F 70 °F 98% 29.97 in 4 mi SE 8.1 mph - - Rain Light Rain